Regional Weather Roundup
Issued by NWS Sterling, VA

Home | Current Version | Previous Version | Text Only | Print | Product List | Glossary Off
Versions: 1 2 3 4 5 6 7 8 9 10 11 12 13 14 15 16 17 18 19 20 21 22 23 24 25 26 27

000
ASUS41 KLWX 271410
RWRLWX

REGIONAL WEATHER ROUNDUP
NATIONAL WEATHER SERVICE BALTIMORE MD/WASHINGTON DC
1000 AM EDT WED JUL 27 2016

Note: "FAIR" indicates few or no clouds below 12,000 feet
with no significant weather and/or obstructions to visibility.
 TC=TEMPERATURE CELSIUS

 * =Non NWS site. Station does not report precipitation (e.g. rain,
    snow, etc.), thunder, or fog.

DCZ001-MDZ009-015-VAZ040>042-051-053>054-271500-
WASHINGTON METRO

CITY           SKY/WX    TMP DP  RH WIND       PRES   REMARKS
WASHINGTON NAT PTSUNNY   87  68  52 N6        29.96S HX  90
DULLES         PTSUNNY   86  63  45 N8        29.98S
ANDREWS AFB    PTSUNNY   86  68  54 VRB3      29.96R HX  90
FT BELVOIR     FAIR      86  67  52 NW8       29.96S
QUANTICO       PTSUNNY   87  70  56 N6        29.97R HX  92
COLLEGE PARK*  PTSUNNY   82  68  61 N3        29.96S
LEESBURG*      PTSUNNY   82  72  69 CALM      30.00S
GAITHERSBURG*  MOSUNNY   81  68  65 CALM      30.02F

$$

MDZ006>007-011-014-271500-
BALTIMORE METRO

CITY           SKY/WX    TMP DP  RH WIND       PRES   REMARKS
BWI AIRPORT    CLOUDY    85  69  58 N5        29.95S
MD SCIENCE CTR   N/A     86  70  58 MISG      29.95S HX  90
MARTIN STATE   PTSUNNY   84  75  74 N7        29.96R HX  92
ANNAPOLIS      CLOUDY    84  72  67 NW6       29.94S
FORT MEADE*    CLOUDY    82  72  69 W3        29.98S

$$

MDZ012-015-019>023-271500-
MARYLAND EASTERN SHORE

CITY           SKY/WX    TMP DP  RH WIND       PRES   REMARKS
OCEAN CITY     MOSUNNY   83  78  85 CALM      29.93F HX  93
SALISBURY      PTSUNNY   83  77  82 CALM      29.93F HX  92
BAY BRIDGE AP* CLOUDY    82  73  74 NW6       29.95S
CAMBRIDGE*     SUNNY     82  72  69 CALM      29.94S
EASTON*        PTSUNNY   86  79  79 W3        29.98  HX  99

$$

MDZ017>025-271500-
SOUTHERN MARYLAND

CITY           SKY/WX    TMP DP  RH WIND       PRES   REMARKS
PATUXENT RIVER PTSUNNY   85  73  67 CALM      29.95S HX  91
ST INIGOES     PTSUNNY   86  75  69 CALM      29.94S HX  95
LEONARDTOWN*     N/A    N/A N/A N/A MISG        N/A

$$

MDZ003>005-271500-
NORTH CENTRAL MARYLAND

CITY           SKY/WX    TMP DP  RH WIND       PRES   REMARKS
FREDERICK*     CLOUDY    81  68  65 N5        30.01S
HAGERSTOWN APT CLOUDY    81  62  52 N6        30.01R

$$

MDZ501>502-271500-
WESTERN MARYLAND

CITY           SKY/WX    TMP DP  RH WIND       PRES   REMARKS
OAKLAND*       PTSUNNY   70  68  94 W3        30.13F
CUMBERLAND*    CLOUDY    79  63  57 E3        30.06F

$$

VAZ025>031-271500-
SHENANDOAH VALLEY

CITY           SKY/WX    TMP DP  RH WIND       PRES   REMARKS
WINCHESTER*    FAIR      81  66  61 CALM      30.01S
FRONT ROYAL*   FAIR      79  70  73 CALM      30.01S
LURAY*         PTSUNNY   77  77 100 CALM      30.03S
NEW MARKET*    FAIR     N/A N/A N/A CALM      30.01F
STAUNTON*      FAIR      75  71  87 CALM      30.06F
WAYNESBORO*    FAIR      79  71  78 NW3       30.05F

$$

WVZ021-048>050-054>055-271500-
EASTERN WEST VIRGINIA PANHANDLE

CITY           SKY/WX    TMP DP  RH WIND       PRES   REMARKS
MARTINSBURG    PTSUNNY   82  60  47 N7        30.00R
PETERSBURG*    FAIR      78  71  80 CALM      30.03F

$$

VAZ036>039-050-271500-
CENTRAL FOOTHILLS

CITY           SKY/WX    TMP DP  RH WIND       PRES   REMARKS
CHARLOTTESVILL FAIR      87  71  58 VRB3      29.99S HX  93
CULPEPER*      FAIR      83  75  76 CALM      29.99S HX  91
ORANGE*          N/A     84  72  65 N6        30.00S
GORDONSVILLE*  FAIR      86  73  64 CALM      29.98S HX  92
WARRENTON*     FAIR      83  65  55 N3        29.98S

$$

VAZ055>057-271500-
NORTH AND CENTRAL PIEDMONT

CITY           SKY/WX    TMP DP  RH WIND       PRES   REMARKS
FREDERICKSBRG* FAIR      86  70  58 E3        29.95F HX  91
STAFFORD*      FAIR      86  64  47 N6        30.00F

$$

NCZ024-NYZ072-PAZ021-071-VAZ022-071-271500-
OTHER REGIONAL OBSERVATIONS

CITY           SKY/WX    TMP DP  RH WIND       PRES   REMARKS
NEW YORK CITY  SUNNY     82  61  48 VRB5      29.98S
PHILADELPHIA   MOSUNNY   85  65  51 E7        29.95F
PITTSBURGH     PTSUNNY   75  61  61 CALM      30.05S
ROANOKE        FAIR      84  72  67 W7        30.05F
RICHMOND       FAIR      83  74  74 VRB3      29.97S
RALEIGH        PTSUNNY   82  77  84 CALM      30.00S HX  90

$$

ANZ530>537-271500-
MARINE OBSERVATIONS

STATION/POSITION TIME  TEMP    WIND        PRES
                       AIR SEA DIR/SP/G
                 (UTC) (F)     (DEG/KT/KT) (MB)
THOMAS PT LIGHT  1400   82 84  360/  4/  4 1015.5R
BALT KEY BRIDGE  1342   82      CALM  /  1 1014.2R
COVE POINT       1342   84      CALM  /  2 1014.6S
LEWISETTA        1348   84 87  240/  2/  3 1013.7F
SOLOMONS ISLAND  1348   85 85   CALM  /  1   N/A
PINEY POINT      1348          280/  4/  4   N/A

$$





USA.gov is the U.S. government's official web portal to all federal, state and local government web resources and services.